This demonstration page uses our WeatherBlox Daily Observations layout. Learn more.

Left ArrowRight Arrow

34.02893, -84.19858

Hourly Observations for July 19, 2019

Temp ( °F °C ) Dew Point ( °F °C ) Humidity (%) Winds ( mph kmh ) Pressure ( in mb ) Visibility ( mi km ) Precip ( " mm )
12:53 am 00:53 Clear 77 25 74 23.3 90 90 WSW 6 9 30.01 1016 10 16 0.00 0.00
1:53 am 01:53 Clear 77 25 74 23.3 90 90 WSW 6 9 30.00 1016 10 16 0.00 0.00
2:53 am 02:53 Clear 76 24.4 74 23.3 94 94 NW 3 6 29.99 1016 10 16 0.00 0.00
3:53 am 03:53 Clear 75 23.9 74 23.3 96 96 SW 6 9 29.99 1016 10 16 0.00 0.00
4:53 am 04:53 Clear 75 23.9 74 23.3 96 96 WSW 5 7 29.99 1016 9 14 0.00 0.00
5:53 am 05:53 Clear 75 23.9 74 23.3 96 96 WSW 3 6 30.01 1016 10 16 0.00 0.00
6:53 am 06:53 Sunny 75 23.9 73 22.8 94 94 WSW 3 6 30.03 1017 9 14 0.00 0.00
7:53 am 07:53 Mostly Sunny 76 24.4 73 22.8 91 91 WSW 3 6 30.04 1017 8 13 0.00 0.00
8:53 am 08:53 Sunny 77 25 73 22.8 88 88 WSW 3 6 30.06 1018 10 16 0.00 0.00
9:53 am 09:53 Cloudy 78 25.6 73 22.8 85 85 W 5 7 30.08 1019 9 14 0.00 0.00
10:53 am 10:53 Sunny 80 26.7 74 23.3 82 82 NW 5 7 30.08 1019 10 16 0.00 0.00
11:53 am 11:53 Partly Cloudy 81 27.2 74 23.3 79 79 WNW 3 6 30.07 1018 10 16 0.00 0.00
12:24 pm 12:24 Mostly Cloudy 83 28.3 75 23.9 77 77 W 5 7 30.07 1018 10 16 0.00 0.00
12:53 pm 12:53 Mostly Cloudy 85 29.4 75 23.9 72 72 WSW 7 11 30.04 1017 9 14 0.00 0.00
1:03 pm 13:03 Mostly Sunny 87 30.6 75 23.9 67 67 VRB 3 6 30.04 1017 10 16 0.00 0.00
1:53 pm 13:53 Mostly Sunny 89 31.7 72 22.2 57 57 VRB 5 7 30.02 1017 10 16 0.00 0.00
2:42 pm 14:42 Partly Cloudy with Nearby Thunderstorms 91 32.8 69 20.6 49 49 WNW 9 15 30.01 1016 10 16 0.00 0.00
2:53 pm 14:53 Mostly Sunny 88 31.1 71 21.7 57 57 W 24 39 30.03 1017 10 16 0.00 0.00
2:56 pm 14:56 Partly Cloudy with Nearby Thunderstorms 87 30.6 70 21.1 57 57 W 24 39 30.03 1017 10 16 0.00 0.00
3:16 pm 15:16 Mostly Cloudy with Heavy Rain 80 26.7 70 21.1 71 71 W 18 30 30.05 1018 4 6 0.06 1.52
3:24 pm 15:24 Cloudy with Nearby Thunderstorms 78 25.6 72 22.2 82 82 W 17 28 30.05 1018 3 4 0.09 2.29
3:31 pm 15:31 Mostly Cloudy with Nearby Thunderstorms 80 26.7 72 22.2 76 76 W 17 28 30.05 1018 10 16 0.09 2.29
3:53 pm 15:53 Mostly Sunny 80 26.7 70 21.1 71 71 W 15 24 30.04 1017 10 16 0.09 2.29
4:53 pm 16:53 Sunny 80 26.7 68 20 67 67 VRB 6 9 30.03 1017 10 16 0.00 0.00
5:53 pm 17:53 Sunny 80 26.7 70 21.1 71 71 W 6 9 30.00 1016 10 16 0.00 0.00
6:53 pm 18:53 Sunny 80 26.7 71 21.7 74 74 W 6 9 30.00 1016 10 16 0.00 0.00
7:53 pm 19:53 Sunny 80 26.7 71 21.7 74 74 WSW 9 15 30.01 1016 10 16 0.00 0.00
8:53 pm 20:53 Clear 78 25.6 72 22.2 82 82 SSW 13 20 30.02 1017 10 16 0.00 0.00
9:53 pm 21:53 Mostly Clear 76 24.4 72 22.2 88 88 SW 9 15 30.04 1017 10 16 0.00 0.00
10:53 pm 22:53 Cloudy 75 23.9 71 21.7 88 88 SW 8 13 30.07 1018 10 16 0.00 0.00
11:09 pm 23:09 Cloudy 75 23.9 71 21.7 88 88 SSW 10 17 30.08 1019 10 16 0.00 0.00
11:53 pm 23:53 Partly Cloudy 74 23.3 71 21.7 91 91 SSW 6 9 30.05 1018 10 16 0.00 0.00

Powered by AerisWeather